SQ2CET-13 Weather Reports


time (UTC)temp
C
wind
direction
speed
KPH
gust
KPH
rain 1hr
cm
rain 24hr
cm
rain mn
cm
humidity
%
barometer
mb
20200606181902 17 0.0 0.0 0.00 0.00 0.00 43 1009.0
20200606180902 17 0.0 0.0 0.00 0.00 0.00 41 1008.8
20200606175903 18 0.0 0.0 0.00 0.00 0.00 40 1008.8
20200606174902 19 0.0 0.0 0.00 0.00 0.00 39 1008.6
20200606173902 19 0.0 0.0 0.00 0.00 0.00 38 1008.5
20200606172902 20 0.0 0.0 0.00 0.00 0.00 36 1008.4
20200606171902 20 0.0 0.0 0.00 0.00 0.00 38 1008.4
20200606170902 19 0.0 0.0 0.00 0.00 0.00 38 1008.3
20200606165902 20 0.0 0.0 0.00 0.00 0.00 37 1008.3
20200606164902 21 0.0 0.0 0.00 0.00 0.00 36 1008.1
20200606163902 20 0.0 0.0 0.00 0.00 0.00 35 1008.2
20200606162902 20 0.0 0.0 0.00 0.00 0.00 37 1008.1
20200606161902 20 0.0 0.0 0.00 0.00 0.00 35 1007.9
20200606160902 20 0.0 0.0 0.00 0.00 0.00 35 1007.7
20200606155902 20 0.0 0.0 0.00 0.00 0.00 36 1007.6
20200606154902 20 0.0 0.0 0.00 0.00 0.00 37 1007.6
20200606153902 20 0.0 0.0 0.00 0.00 0.00 39 1007.5
20200606152902 20 0.0 0.0 0.00 0.00 0.00 37 1007.4
20200606151902 20 0.0 0.0 0.00 0.00 0.00 38 1007.4
20200606150902 20 0.0 0.0 0.00 0.00 0.00 36 1007.2
20200606145902 20 0.0 0.0 0.00 0.00 0.00 36 1007.1
20200606144902 20 0.0 0.0 0.00 0.00 0.00 40 1007.0
20200606143902 20 0.0 0.0 0.00 0.00 0.00 38 1007.0
20200606142902 20 0.0 0.0 0.00 0.00 0.00 40 1007.1
20200606141902 19 0.0 0.0 0.00 0.00 0.00 40 1007.1
20200606140902 20 0.0 0.0 0.00 0.00 0.00 40 1007.4
20200606135902 18 0.0 0.0 0.00 0.00 0.00 42 1007.2
20200606134902 18 0.0 0.0 0.00 0.00 0.00 40 1007.1
20200606133902 18 0.0 0.0 0.00 0.00 0.00 40 1007.2
20200606132902 18 0.0 0.0 0.00 0.00 0.00 40 1007.2
20200606131902 18 0.0 0.0 0.00 0.00 0.00 42 1007.0
20200606130902 17 0.0 0.0 0.00 0.00 0.00 42 1007.1
20200606125902 18 0.0 0.0 0.00 0.00 0.00 44 1007.0
20200606124902 18 0.0 0.0 0.00 0.00 0.00 44 1007.0
20200606123902 18 0.0 0.0 0.00 0.00 0.00 42 1007.0
20200606122902 17 0.0 0.0 0.00 0.00 0.00 47 1007.0
20200606121902 17 0.0 0.0 0.00 0.00 0.00 47 1007.0
20200606120902 16 0.0 0.0 0.00 0.00 0.00 49 1007.0
20200606115902 16 0.0 0.0 0.00 0.00 0.00 46 1007.1
20200606114902 16 0.0 0.0 0.00 0.00 0.00 43 1006.7
20200606113902 16 0.0 0.0 0.00 0.00 0.00 46 1006.8
20200606112902 16 0.0 0.0 0.00 0.00 0.00 45 1006.7
20200606111902 16 0.0 0.0 0.00 0.00 0.00 46 1006.6
20200606110902 15 0.0 0.0 0.00 0.00 0.00 47 1006.4
20200606105902 16 0.0 0.0 0.00 0.00 0.00 46 1006.2
20200606104902 16 0.0 0.0 0.00 0.00 0.00 48 1006.4
20200606103902 16 0.0 0.0 0.00 0.00 0.00 49 1006.1
20200606102902 16 0.0 0.0 0.00 0.00 0.00 49 1006.0
20200606101904 15 0.0 0.0 0.00 0.00 0.00 50 1006.0
20200606100902 15 0.0 0.0 0.00 0.00 0.00 49 1005.8
20200606095902 15 0.0 0.0 0.00 0.00 0.00 53 1005.7
20200606094901 13 0.0 0.0 0.00 0.00 0.00 54 1005.3
20200606093902 13 0.0 0.0 0.00 0.00 0.00 56 1005.4
20200606092902 13 0.0 0.0 0.00 0.00 0.00 55 1005.1
20200606090902 13 0.0 0.0 0.00 0.00 0.00 60 1004.8
20200606085902 12 0.0 0.0 0.00 0.00 0.00 59 1004.9
20200606084901 12 0.0 0.0 0.00 0.00 0.00 62 1004.9
20200606083901 12 0.0 0.0 0.00 0.00 0.00 61 1004.6
20200606082902 12 0.0 0.0 0.00 0.00 0.00 60 1004.5
20200606081901 13 0.0 0.0 0.00 0.00 0.00 62 1004.3
20200606080901 13 0.0 0.0 0.00 0.00 0.00 63 1004.2
20200606075901 12 0.0 0.0 0.00 0.00 0.00 63 1004.4
20200606074901 12 0.0 0.0 0.00 0.00 0.00 65 1004.2
20200606073901 12 0.0 0.0 0.00 0.00 0.00 67 1003.9
20200606072901 12 0.0 0.0 0.00 0.00 0.00 65 1003.8
20200606071902 12 0.0 0.0 0.00 0.00 0.00 66 1003.8
20200606070901 12 0.0 0.0 0.00 0.00 0.00 66 1003.1
20200606065901 11 0.0 0.0 0.00 0.00 0.00 68 1003.0
20200606064901 11 0.0 0.0 0.00 0.00 0.00 72 1002.9
20200606063901 11 0.0 0.0 0.00 0.00 0.00 70 1002.7
20200606062901 11 0.0 0.0 0.00 0.00 0.00 71 1002.6
20200606061901 11 0.0 0.0 0.00 0.00 0.00 71 1002.4
20200606060901 11 0.0 0.0 0.00 0.00 0.00 74 1002.3
20200606055901 11 0.0 0.0 0.00 0.00 0.00 74 1002.1
20200606054901 11 0.0 0.0 0.00 0.00 0.00 75 1001.9
20200606053901 10 0.0 0.0 0.00 0.00 0.00 79 1001.8
20200606052901 10 0.0 0.0 0.00 0.00 0.00 82 1001.5
20200606051901 10 0.0 0.0 0.00 0.00 0.00 78 1001.4
20200606050901 11 0.0 0.0 0.00 0.00 0.00 77 1001.3
20200606045901 11 0.0 0.0 0.00 0.00 0.00 81 1001.0
20200606044901 10 0.0 0.0 0.00 0.00 0.00 86 1000.9
20200606043901 10 0.0 0.0 0.00 0.00 0.00 87 1000.5
20200606042901 10 0.0 0.0 0.00 0.00 0.00 88 1000.5
20200606041901 10 0.0 0.0 0.00 0.00 0.00 89 1000.3
20200606040901 10 0.0 0.0 0.00 0.00 0.00 90 1000.2
20200606035901 11 0.0 0.0 0.00 0.00 0.00 90 1000.0
20200606034902 11 0.0 0.0 0.00 0.00 0.00 90 1000.0
20200606033901 11 0.0 0.0 0.00 0.00 0.00 89 999.9
20200606032901 11 0.0 0.0 0.00 0.00 0.00 90 999.7
20200606031901 11 0.0 0.0 0.00 0.00 0.00 91 999.6
20200606030901 11 0.0 0.0 0.00 0.00 0.00 91 999.5
20200606025901 11 0.0 0.0 0.00 0.00 0.00 92 999.4
20200606024901 11 0.0 0.0 0.00 0.00 0.00 91 999.2
20200606023901 11 0.0 0.0 0.00 0.00 0.00 91 999.1
20200606022901 11 0.0 0.0 0.00 0.00 0.00 92 999.2
20200606021901 11 0.0 0.0 0.00 0.00 0.00 91 999.2
20200606020901 11 0.0 0.0 0.00 0.00 0.00 91 999.1
20200606015901 11 0.0 0.0 0.00 0.00 0.00 91 999.3
20200606014901 11 0.0 0.0 0.00 0.00 0.00 91 999.3
20200606013901 11 0.0 0.0 0.00 0.00 0.00 90 999.3
20200606012901 11 0.0 0.0 0.00 0.00 0.00 90 999.3
20200606011901 11 0.0 0.0 0.00 0.00 0.00 89 999.5
20200606010901 11 0.0 0.0 0.00 0.00 0.00 89 999.7
20200606005901 11 0.0 0.0 0.00 0.00 0.00 89 999.7
20200606004900 11 0.0 0.0 0.00 0.00 0.00 89 999.9
20200606003901 11 0.0 0.0 0.00 0.00 0.00 88 1000.2
20200606002901 11 0.0 0.0 0.00 0.00 0.00 88 1000.2
20200606001901 11 0.0 0.0 0.00 0.00 0.00 89 1000.3
20200606000901 11 0.0 0.0 0.00 0.00 0.00 89 1000.3
20200605235901 11 0.0 0.0 0.00 0.00 0.00 89 1000.4
20200605234900 11 0.0 0.0 0.00 0.00 0.00 89 1000.5
20200605233900 11 0.0 0.0 0.00 0.00 0.00 89 1000.6
20200605232901 11 0.0 0.0 0.00 0.00 0.00 89 1000.6
20200605231900 11 0.0 0.0 0.00 0.00 0.00 90 1000.8
20200605230900 11 0.0 0.0 0.00 0.00 0.00 90 1000.5
20200605225901 11 0.0 0.0 0.00 0.00 0.00 90 1000.5
20200605224900 11 0.0 0.0 0.00 0.00 0.00 90 1000.4
20200605223900 11 0.0 0.0 0.00 0.00 0.00 90 1000.6
20200605222901 11 0.0 0.0 0.00 0.00 0.00 90 1000.6
20200605221900 11 0.0 0.0 0.00 0.00 0.00 90 1000.6
20200605220900 11 0.0 0.0 0.00 0.00 0.00 89 1000.6
20200605215900 11 0.0 0.0 0.00 0.00 0.00 89 1000.4
20200605214901 11 0.0 0.0 0.00 0.00 0.00 90 1000.3
20200605213900 11 0.0 0.0 0.00 0.00 0.00 89 1000.6
20200605212900 11 0.0 0.0 0.00 0.00 0.00 89 1000.7
20200605211900 11 0.0 0.0 0.00 0.00 0.00 89 1000.7
20200605210900 11 0.0 0.0 0.00 0.00 0.00 89 1000.8
20200605205900 11 0.0 0.0 0.00 0.00 0.00 89 1000.9
20200605204900 11 0.0 0.0 0.00 0.00 0.00 89 1000.8
20200605203900 11 0.0 0.0 0.00 0.00 0.00 89 1000.7
20200605202900 10 0.0 0.0 0.00 0.00 0.00 89 1000.7
20200605201900 10 0.0 0.0 0.00 0.00 0.00 90 1000.9
20200605200900 10 0.0 0.0 0.00 0.00 0.00 89 1000.9
20200605195900 10 0.0 0.0 0.00 0.00 0.00 89 1001.0
20200605194900 10 0.0 0.0 0.00 0.00 0.00 89 1000.9
20200605193900 10 0.0 0.0 0.00 0.00 0.00 88 1000.8
20200605192900 10 0.0 0.0 0.00 0.00 0.00 88 1000.9
20200605191900 10 0.0 0.0 0.00 0.00 0.00 88 1000.7
20200605190900 11 0.0 0.0 0.00 0.00 0.00 87 1000.5
20200605185902 11 0.0 0.0 0.00 0.00 0.00 87 1000.4
20200605184851 11 0.0 0.0 0.00 0.00 0.00 87 1000.3
20200605183851 12 0.0 0.0 0.00 0.00 0.00 87 1000.2
20200605182852 12 0.0 0.0 0.00 0.00 0.00 87 1000.0